Simultaneous Nadir Overpasses (SNOs) Predictions

Prediction of SNOs between GOES-16 and NOAA-20 Satellite Orbit:

Table of predicted SNOs for the next 14.0 days since TLE Epoch: 10/31/2020
Index Date Time (GOES-16) GOES-16 Lat,Lon NOAA-20 Lat,Lon Distance(km) Time Diff (sec)
1 11/01/2020 06:31:56 0.01, -75.16 0.28, -76.47 148.52 80
2 11/02/2020 06:10:31 0.02, -75.16 -0.71, -71.94 367.77 80
3 11/03/2020 18:32:29 -0.01, -75.17 -0.46, -77.24 235.71 80
4 11/04/2020 18:16:24 -0.01, -75.18 0.53, -72.71 280.82 80
5 11/06/2020 06:38:14 0.01, -75.17 0.61, -77.99 320.74 80
6 11/07/2020 06:16:49 0.01, -75.18 -0.38, -73.46 195.77 80
7 11/08/2020 18:38:46 -0.00, -75.19 -0.79, -78.77 407.40 80
8 11/09/2020 18:22:42 -0.00, -75.20 0.21, -74.24 109.61 80
9 11/11/2020 06:44:30 0.00, -75.21 0.99, -79.50 490.59 80
10 11/12/2020 06:23:07 0.00, -75.22 -0.06, -74.98 26.64 80
